Location: Cedar Brake
(32.2526°N, 97.8459°W)
Time: 21:24:49
(UTC+00:00)

Resurs 1-4 Rocket - Pass Details

Date: 22 April 2026
Orbit: 798 x 812 km, 98.8° (Epoch: 21 May)

Event Time Altitude Azimuth Distance (km) Brightness Sun altitude
Rises 09:30:42 0° 7° (N) 3,331 5.9 -28.0°
Reaches altitude 10° 09:33:05 10° 3° (N) 2,394 5.0 -27.6°
Enters shadow 09:37:30 50° 317° (NW) 1,022 2.5 -26.8°
